Theta_e
297 294 296 297 296 297 297 300 297 301 301 306 310 324 330 332 333 334 336 338 338 337 337 339 341 346 346 349 350 352 352 351 354 355 357 357 359 358 361 363 362 364 364 364
297 297 298 302 306 300 298 301 300 302 301 321 330 331 328 328 327 327 329 331 333 337 341 340 340 342 344 348 350 355 353 351 355 355 356 356 357 358 359 361 362 364 362 362
293 298 304 298 307 307 307 311 308 302 310 323 322 321 322 321 323 323 324 325 325 327 329 334 339 343 344 345 350 351 352 350 353 354 354 356 356 356 356 358 361 361 362 361
295 298 289 306 315 314 311 313 316 317 317 320 317 317 318 320 319 319 320 322 323 325 327 329 333 340 346 348 350 349 350 351 353 352 351 353 353 354 356 355 356 357 357 359
293 294 300 305 309 309 308 306 315 317 317 318 318 317 314 319 320 319 319 321 322 324 326 328 329 330 334 341 345 349 349 350 351 352 348 352 352 354 357 356 356 357 357 358
294 293 290 305 308 310 311 303 313 318 317 318 319 313 312 317 320 320 321 321 322 324 325 326 328 331 329 329 336 336 339 341 341 342 344 348 352 353 358 357 356 356 357 361
292 296 299 303 306 311 300 304 315 318 318 317 315 316 316 319 319 321 322 323 324 323 322 322 326 330 330 329 327 329 333 337 340 342 344 347 349 352 355 357 358 360 359 363
295 295 293 303 308 306 310 318 317 316 317 316 316 317 318 319 319 320 321 323 325 324 324 325 326 328 328 327 330 332 333 333 335 337 340 343 344 348 351 352 354 356 359 358
298 297 301 302 301 304 310 310 312 317 317 317 316 315 317 317 320 319 321 322 322 322 322 323 324 324 325 325 327 332 335 335 334 335 337 340 340 342 343 349 349 350 352 353
301 298 298 301 302 304 305 305 310 314 316 317 315 316 316 317 318 320 321 320 321 320 318 316 318 319 320 323 326 330 331 332 334 335 334 339 339 340 340 338 338 346 349 351
298 300 300 300 301 302 304 305 306 308 308 307 314 315 316 316 317 318 319 321 319 316 315 314 314 314 317 319 321 327 330 330 329 331 332 333 336 336 336 338 325 333 332 333
297 301 301 300 301 303 303 304 307 308 308 308 307 308 317 318 319 320 319 319 318 314 314 310 312 310 311 317 320 325 326 325 325 327 328 326 326 332 320 318 306 303 301 313
302 302 302 302 301 302 302 303 306 308 310 309 311 310 310 312 318 319 321 321 321 316 311 309 309 309 309 313 314 317 318 322 323 323 325 324 324 324 324 326 314 305 304 304
299 302 299 299 299 300 302 303 304 306 307 308 309 310 310 312 314 319 318 321 322 317 313 310 309 308 308 310 310 314 315 310 320 322 324 323 323 323 323 322 322 327 315 308
298 298 298 299 300 299 301 302 301 302 304 304 306 306 307 308 309 311 315 320 320 316 313 310 310 309 308 308 308 310 311 314 316 318 321 319 322 323 320 320 320 322 323 316
298 298 298 298 298 299 300 300 300 300 302 303 303 304 306 307 308 310 313 315 317 313 312 310 310 309 309 309 310 310 312 310 312 317 317 318 320 320 320 319 320 319 317 316
297 295 297 297 298 298 299 300 300 300 301 302 303 304 305 305 306 308 311 314 317 318 314 309 309 309 307 306 306 308 311 314 309 313 315 317 317 318 319 318 317 317 317 314
300 300 299 299 298 298 299 300 300 301 300 302 303 303 303 304 303 305 308 310 316 315 308 308 308 308 306 305 306 308 308 311 313 312 310 311 312 315 316 317 316 315 315 315
302 301 300 299 300 299 300 300 300 301 302 303 302 302 302 303 304 305 307 309 312 307 307 307 304 303 305 304 306 308 308 309 312 312 310 308 310 311 311 313 315 315 314 313
302 303 302 300 300 300 301 301 301 301 302 303 303 303 301 301 302 301 300 297 298 300 303 302 301 302 303 305 305 306 307 309 309 309 308 307 308 309 309 305 311 313 313 312
303 303 303 303 303 302 302 303 302 301 302 303 302 303 303 302 301 300 298 297 299 301 301 301 299 300 301 304 306 304 305 307 307 306 306 306 306 307 309 309 308 309 310 312
304 304 304 304 304 304 305 303 303 302 302 302 302 303 303 303 302 300 300 299 303 302 302 301 301 302 303 305 305 303 303 304 305 306 305 305 305 305 306 307 307 308 309 310
306 306 306 306 305 305 306 305 304 303 303 304 304 304 303 303 304 302 300 301 303 302 302 301 295 302 303 305 305 304 304 304 304 304 305 305 305 305 305 305 306 306 307 309
308 308 307 308 307 305 304 305 306 306 306 306 306 306 305 304 305 306 305 303 302 302 303 303 301 301 300 305 305 305 305 305 304 305 305 299 304 305 305 305 305 306 306 306
308 308 307 306 304 304 306 307 306 306 305 306 307 308 307 307 305 307 307 307 303 303 306 304 302 302 304 304 304 304 304 304 305 305 305 305 304 304 305 305 305 306 306 307
305 304 305 306 306 306 305 305 304 305 305 305 306 308 308 308 308 306 307 304 306 304 305 306 306 305 305 305 305 304 305 304 304 304 303 304 305 305 305 305 305 305 306 307
305 299 305 305 306 305 305 305 305 305 305 306 305 307 308 308 306 304 302 304 304 305 305 306 306 305 306 305 305 305 305 305 301 304 305 305 306 306 306 306 306 307 307 307
Wind_Speed
6 5 7 9 12 15 19 20 19 17 19 15 10 1 5 4 6 7 7 6 3 8 10 12 11 12 14 13 13 14 14 15 14 13 12 11 11 13 12 11 12 12 11 11
4 4 11 6 5 11 13 7 11 8 17 4 6 8 7 5 7 7 6 7 7 5 1 10 10 11 12 12 14 13 12 13 13 11 11 12 12 12 12 13 13 12 13 14
4 7 10 7 4 4 7 5 4 11 1 2 9 8 7 8 8 9 8 8 8 8 7 6 4 5 9 9 11 13 12 9 10 11 12 12 12 13 13 13 12 14 14 15
1 8 10 8 4 4 7 5 2 3 6 11 12 11 11 9 9 9 8 9 8 7 7 8 7 5 2 8 9 11 12 12 10 9 10 8 9 11 12 11 13 13 14 14
4 4 6 5 3 2 3 2 6 4 6 12 12 13 10 10 10 9 9 9 8 8 8 9 9 9 6 9 3 8 8 9 9 10 8 10 11 12 12 10 11 13 14 14
3 5 8 8 4 6 3 4 4 1 3 4 2 3 4 6 7 9 10 8 8 9 9 11 9 6 7 13 4 4 4 1 2 3 4 6 9 9 9 12 13 12 14 14
5 3 2 4 6 1 6 5 4 3 3 4 3 5 9 8 7 8 8 8 9 8 9 10 9 8 10 6 4 4 10 6 3 4 4 5 7 8 9 10 13 13 14 13
3 5 6 10 2 5 4 7 9 8 8 11 11 9 8 7 7 6 7 7 9 8 9 9 9 9 9 11 11 10 6 4 3 7 5 5 5 5 7 10 12 13 13 13
3 3 5 8 9 6 5 10 7 9 9 9 9 8 6 6 8 7 7 6 7 6 8 8 10 10 8 10 11 9 8 7 10 6 4 5 5 5 4 6 8 8 8 8
5 5 7 6 8 9 10 13 11 12 12 9 8 6 5 5 5 8 6 6 6 8 9 9 8 9 10 10 9 8 8 9 9 7 7 5 4 4 4 3 4 5 4 6
6 8 5 7 7 8 9 9 11 12 12 10 8 5 3 2 3 3 3 5 5 6 6 7 6 8 9 9 10 6 5 6 7 6 7 7 7 6 5 4 2 3 4 5
3 7 3 5 5 8 6 8 9 9 9 10 9 7 6 4 3 2 2 3 2 2 4 3 5 9 8 6 7 9 6 5 5 6 7 6 7 8 1 4 3 3 2 1
4 6 6 6 7 5 5 6 6 7 7 7 8 7 6 5 5 6 5 5 5 6 4 2 3 3 3 9 8 7 7 7 5 5 6 7 8 6 8 5 4 4 6 3
3 6 5 5 3 2 3 3 4 6 6 6 7 6 7 7 7 6 7 7 6 4 3 4 5 2 1 1 2 6 6 6 6 5 5 6 7 7 6 6 7 8 5 8
6 5 5 5 4 4 5 5 6 8 7 7 7 8 9 8 8 9 10 9 8 7 6 5 5 5 3 3 2 3 1 2 4 4 4 4 5 6 5 6 7 7 7 7
5 4 5 7 7 7 8 8 8 10 9 8 9 10 10 9 10 10 9 10 9 10 9 7 5 2 2 2 5 4 2 2 3 3 3 3 3 4 4 5 5 6 7 9
7 5 5 8 9 10 9 8 9 9 8 8 9 10 9 10 11 12 12 10 11 13 10 9 8 5 3 3 3 3 4 3 3 2 3 2 3 2 4 5 6 6 5 6
3 6 6 6 6 6 7 8 8 9 9 10 11 12 13 13 12 14 14 14 11 10 9 7 6 5 3 2 4 4 4 4 3 3 3 3 4 4 4 5 5 5 5 5
6 6 5 3 2 4 4 5 6 6 7 8 9 10 11 12 13 12 12 11 8 9 7 5 3 4 4 1 5 4 5 5 4 3 4 3 4 4 4 5 5 5 5 5
7 5 5 3 3 3 2 2 4 5 5 6 8 9 9 10 13 13 12 10 11 6 6 3 3 1 4 1 4 3 4 5 4 4 4 5 4 4 4 3 4 4 4 4
9 8 7 6 5 4 4 4 5 5 6 6 6 7 7 6 7 11 10 8 9 12 12 10 6 4 4 5 5 4 3 4 5 5 5 5 5 5 5 5 6 5 5 4
9 8 7 6 6 7 7 7 8 9 9 7 7 5 4 3 4 3 4 5 5 14 9 7 5 6 6 11 6 6 5 5 4 5 5 5 5 6 7 6 7 7 6 6
8 9 8 8 10 11 9 10 11 12 12 10 9 8 7 5 4 4 1 2 6 3 4 10 8 12 8 6 6 6 6 6 6 6 6 7 7 7 7 7 7 8 8 7
8 8 9 9 9 9 12 13 12 12 11 10 10 9 7 6 6 6 7 9 12 12 9 9 11 11 8 4 5 6 7 7 7 6 7 7 8 9 8 8 8 8 8 7
7 7 7 8 9 9 11 8 7 8 9 9 9 8 9 7 7 6 5 6 9 9 9 9 10 10 6 5 5 6 7 7 8 8 8 8 9 9 9 9 9 9 9 8
7 6 6 8 8 7 6 5 6 6 5 6 5 4 3 4 5 6 6 7 8 6 7 6 5 6 6 8 8 9 9 9 9 9 9 10 11 11 10 11 10 10 11 11
6 6 6 7 7 7 7 7 7 8 5 5 5 3 2 3 4 5 6 7 7 7 7 7 7 8 8 9 10 10 9 9 9 10 9 9 9 9 10 10 10 10 10 10
Wind_Direction
256 226 189 206 198 192 212 226 230 233 240 251 287 173 82 62 68 74 82 99 148 201 202 207 194 185 196 201 192 190 190 194 202 207 209 212 208 218 226 224 225 225 231 235
233 195 198 168 190 204 219 207 222 239 250 13 83 101 83 85 81 71 61 48 49 52 61 210 205 202 196 197 195 188 186 194 192 194 197 203 211 216 223 229 229 229 231 237
175 176 153 166 151 202 158 146 218 212 306 109 95 73 77 79 79 80 63 47 37 38 41 50 52 227 193 189 193 195 193 190 198 189 203 210 213 217 221 227 231 232 235 236
296 181 196 65 92 110 107 75 39 98 73 81 94 80 59 51 73 63 56 47 41 39 41 33 36 63 144 187 194 203 205 205 200 183 205 201 207 206 221 225 231 231 234 234
256 200 104 145 75 78 19 81 0 115 127 119 126 98 59 50 60 64 53 47 40 38 37 31 36 26 70 52 237 210 210 213 222 224 222 219 219 223 228 226 230 233 232 232
200 206 199 100 80 29 335 184 0 334 92 133 174 150 93 57 59 64 56 42 35 30 37 43 20 46 47 75 292 90 140 275 246 276 241 232 239 238 238 234 239 241 243 239
222 230 126 42 328 165 209 89 70 48 87 119 86 81 124 116 88 73 69 62 66 50 43 36 19 37 60 76 40 332 48 322 349 18 326 289 273 264 264 254 253 252 252 251
157 211 185 359 210 235 38 104 97 82 92 99 104 106 107 111 104 88 76 73 67 67 60 46 33 35 34 28 10 17 31 301 329 36 353 319 307 286 273 259 254 255 254 253
338 53 47 36 61 20 49 76 46 95 86 92 96 98 100 106 95 82 76 67 67 71 69 49 41 35 29 9 3 359 13 360 25 20 353 317 325 320 298 293 243 249 245 250
176 90 65 49 55 36 47 68 62 62 74 68 83 76 80 90 103 105 95 74 60 61 54 49 40 45 30 8 357 1 14 18 14 354 343 333 314 297 299 334 353 330 275 255
88 110 132 59 44 26 48 52 66 63 58 52 48 46 31 52 82 75 87 120 109 91 87 73 29 35 47 19 349 354 16 33 27 3 0 355 343 333 329 7 350 5 11 325
106 107 49 79 43 14 35 40 52 66 62 49 44 25 0 328 305 246 191 164 138 111 128 74 57 42 3 21 23 340 335 19 32 14 11 360 342 334 142 317 122 108 201 70
97 96 88 119 67 26 28 28 36 60 50 55 45 20 19 344 304 290 271 260 253 183 161 126 78 91 350 350 22 341 343 343 5 28 14 358 348 342 335 336 167 156 39 5
68 145 129 82 106 49 70 70 90 71 50 39 14 4 4 348 332 274 256 269 243 231 269 154 158 184 160 330 284 315 2 333 333 8 13 4 352 340 333 339 339 338 6 357
70 79 94 117 131 86 81 57 79 62 38 32 17 356 345 331 318 313 309 295 221 216 202 215 215 169 157 230 200 206 234 60 346 343 328 342 345 332 339 342 349 337 340 338
143 120 117 96 90 76 68 53 53 46 29 18 7 356 339 323 312 307 294 284 238 219 207 205 214 225 313 357 336 325 331 306 279 286 305 342 1 323 329 341 3 354 354 355
157 131 86 68 58 53 48 43 39 32 19 14 3 347 338 328 321 315 308 286 256 239 210 192 183 179 209 219 239 259 258 240 236 263 317 334 295 327 343 357 359 356 6 6
118 118 101 85 60 42 34 27 23 18 15 360 356 355 353 347 332 313 304 295 267 223 199 194 185 173 195 220 287 280 268 266 261 286 297 317 333 338 347 354 353 348 354 8
164 146 130 114 74 39 13 22 24 13 8 3 2 358 356 354 346 334 330 293 245 208 196 205 212 215 172 212 299 272 266 250 253 269 294 298 303 338 339 339 338 336 335 341
173 172 168 174 196 241 320 13 7 359 7 1 0 6 3 5 12 18 16 41 21 2 351 343 284 324 277 291 316 299 281 263 261 279 289 305 306 311 311 284 301 302 301 308
196 195 200 207 220 237 265 301 310 312 332 346 345 352 357 357 18 13 26 1 356 356 347 343 319 314 291 334 307 310 297 274 271 280 294 302 302 298 293 294 294 296 292 288
203 210 220 230 244 264 264 266 262 260 260 256 259 277 311 332 349 43 23 332 331 347 331 316 319 325 306 308 302 299 306 296 288 278 277 273 276 290 298 299 292 293 290 287
207 220 229 228 235 247 255 247 245 246 254 255 253 251 257 271 254 264 111 253 272 235 289 304 315 300 300 278 282 283 281 278 283 288 291 281 275 274 274 275 289 289 286 273
218 221 230 237 239 238 243 245 241 244 247 255 258 251 245 262 260 234 256 241 234 251 255 254 277 293 316 296 286 280 277 274 270 273 277 271 271 274 271 271 283 289 284 257
212 220 221 217 220 233 242 254 253 254 250 249 257 254 241 232 250 296 278 268 244 243 263 258 251 271 279 284 279 285 291 281 274 274 272 268 264 263 260 261 268 274 275 276
205 223 233 231 244 253 255 255 259 270 256 252 258 260 244 223 227 243 258 261 275 277 272 278 276 277 280 282 286 293 292 290 281 269 269 269 259 259 258 257 262 267 261 257
237 236 249 256 251 252 251 253 258 266 255 247 259 260 243 251 256 263 274 283 287 290 290 287 282 272 274 274 277 279 279 280 273 273 281 272 262 256 256 258 262 262 264 263